H1 CPF 2 NER 2024 10 14 9 288 01 glonass137 H2 1705501 9137 42939 2024 10 14 0 0 0 2024 10 17 23 45 0 900 1 1 0 0 0 1 H9 10 0 60597 0.00000 0 8248046.745 11774230.625 -21053530.772 10 0 60597 900.00000 0 5611958.671 11375214.187 -22114877.404 10 0 60597 1800.00000 0 2850230.255 11158343.515 -22746050.846 10 0 60597 2700.00000 0 29735.747 11139063.689 -22934842.106 10 0 60597 3600.00000 0 -2780529.312 11320894.876 -22677655.349 10 0 60597 4500.00000 0 -5512075.241 11695273.923 -21979571.993 10 0 60597 5400.00000 0 -8099522.172 12241923.358 -20854245.708 10 0 60597 6300.00000 0 -10483073.128 12929731.796 -19323630.764 10 0 60597 7200.00000 0 -12610754.127 13718108.126 -17417549.369 10 0 60597 8100.00000 0 -14440329.073 14558752.000 -15173106.620 10 0 60597 9000.00000 0 -15940810.935 15397765.635 -12633964.648 10 0 60597 9900.00000 0 -17093507.514 16178017.591 -9849490.186 10 0 60597 10800.00000 0 -17892559.698 16841658.619 -6873792.316 10 0 60597 11700.00000 0 -18344951.313 17332683.325 -3764669.201 10 0 60597 12600.00000 0 -18469991.766 17599429.442 -582484.494 10 0 60597 13500.00000 0 -18298294.786 17596909.263 2611004.549 10 0 60597 14400.00000 0 -17870297.572 17288874.815 5753844.374 10 0 60597 15300.00000 0 -17234383.792 16649529.718 8785084.463 10 0 60597 16200.00000 0 -16444690.341 15664815.459 11645955.464 10 0 60597 17100.00000 0 -15558690.705 14333217.798 14281003.490 10 0 60597 18000.00000 0 -14634656.918 12666059.028 16639158.913 10 0 60597 18900.00000 0 -13729106.805 10687263.271 18674719.522 10 0 60597 19800.00000 0 -12894343.551 8432603.807 20348229.700 10 0 60597 20700.00000 0 -12176190.510 5948462.872 21627239.323 10 0 60597 21600.00000 0 -11612015.833 3290154.345 22486928.458 10 0 60597 22500.00000 0 -11229129.301 519877.696 22910586.422 10 0 60597 23400.00000 0 -11043618.268 -2295613.277 22889936.334 10 0 60597 24300.00000 0 -11059671.362 -5087531.736 22425299.061 10 0 60597 25200.00000 0 -11269418.436 -7787666.025 21525593.219 10 0 60597 26100.00000 0 -11653293.858 -10330967.959 20208170.730 10 0 60597 27000.00000 0 -12180908.475 -12658014.923 18498490.369 10 0 60597 27900.00000 0 -12812394.422 -14717244.426 16429634.594 10 0 60597 28800.00000 0 -13500166.972 -16466868.751 14041677.974 10 0 60597 29700.00000 0 -14191030.014 -17876390.319 11380918.355 10 0 60597 30600.00000 0 -14828536.898 -18927654.663 8498984.724 10 0 60597 31500.00000 0 -15355507.293 -19615397.021 5451838.444 10 0 60597 32400.00000 0 -15716593.611 -19947259.625 2298686.886 10 0 60597 33300.00000 0 -15860787.991 -19943278.986 -899169.463 10 0 60597 34200.00000 0 -15743762.863 -19634864.843 -4079533.590 10 0 60597 35100.00000 0 -15329944.895 -19063314.153 -7180528.336 10 0 60597 36000.00000 0 -14594233.346 -18277923.402 -10141808.029 10 0 60597 36900.00000 0 -13523288.587 -17333779.520 -12905740.815 10 0 60597 37800.00000 0 -12116334.965 -16289323.541 -15418537.717 10 0 60597 38700.00000 0 -10385442.750 -15203790.703 -17631305.677 10 0 60597 39600.00000 0 -8355276.027 -14134635.863 -19501003.453 10 0 60597 40500.00000 0 -6062316.133 -13135053.550 -20991281.437 10 0 60597 41400.00000 0 -3553592.328 -12251697.668 -22073189.014 10 0 60597 42300.00000 0 -884972.244 -11522697.141 -22725735.842 10 0 60597 43200.00000 0 1880917.022 -10976050.989 -22936296.496 10 0 60597 44100.00000 0 4677050.859 -10628470.031 -22700851.107 10 0 60597 45000.00000 0 7434554.097 -10484713.369 -22024057.770 10 0 60597 45900.00000 0 10085327.384 -10537446.825 -20919155.843 10 0 60597 46800.00000 0 12564644.224 -10767628.436 -19407702.410 10 0 60597 47700.00000 0 14813611.205 -11145403.898 -17519147.343 10 0 60597 48600.00000 0 16781389.817 -11631473.391 -15290255.505 10 0 60597 49500.00000 0 18427088.265 -12178871.438 -12764387.471 10 0 60597 50400.00000 0 19721245.476 -12735084.069 -9990652.915 10 0 60597 51300.00000 0 20646846.642 -13244413.413 -7022953.288 10 0 60597 52200.00000 0 21199829.192 -13650489.526 -3918932.504 10 0 60597 53100.00000 0 21389059.482 -13898823.041 -738856.271 10 0 60597 54000.00000 0 21235782.577 -13939290.646 2455557.988 10 0 60597 54900.00000 0 20772569.604 -13728448.293 5602337.762 10 0 60597 55800.00000 0 20041808.029 -13231574.367 8640455.239 10 0 60597 56700.00000 0 19093799.276 -12424356.506 11511007.037 10 0 60597 57600.00000 0 17984544.294 -11294150.770 14158351.170 10 0 60597 58500.00000 0 16773310.453 -9840759.828 16531179.549 10 0 60597 59400.00000 0 15520082.016 -8076696.923 18583505.780 10 0 60597 60300.00000 0 14283000.936 -6026923.711 20275549.831 10 0 60597 61200.00000 0 13115904.831 -3728071.956 21574503.157 10 0 60597 62100.00000 0 12066064.734 -1227180.235 22455160.240 10 0 60597 63000.00000 0 11172216.638 1420003.184 22900404.978 10 0 60597 63900.00000 0 10462968.675 4151082.298 22901542.957 10 0 60597 64800.00000 0 9955650.064 6899356.161 22458473.334 10 0 60597 65700.00000 0 9655649.713 9596346.903 21579696.893 10 0 60597 66600.00000 0 9556272.134 12174409.493 20282159.623 10 0 60597 67500.00000 0 9639116.822 14569316.193 18590934.090 10 0 60597 68400.00000 0 9874965.558 16722709.330 16538743.783 10 0 60597 69300.00000 0 10225140.783 18584321.001 14165338.562 10 0 60597 70200.00000 0 10643278.342 20113867.564 11516732.224 10 0 60597 71100.00000 0 11077440.286 21282540.063 8644316.019 10 0 60597 72000.00000 0 11472478.732 22074028.085 5603864.645 10 0 60597 72900.00000 0 11772550.791 22485033.961 2454453.656 10 0 60597 73800.00000 0 11923677.769 22525255.563 -742690.714 10 0 60597 74700.00000 0 11876239.473 22216838.182 -3925386.584 10 0 60597 75600.00000 0 11587296.988 21593318.739 -7031712.398 10 0 60597 76500.00000 0 11022644.250 20698107.014 -10001219.382 10 0 60597 77400.00000 0 10158500.155 19582568.419 -12776115.848 10 0 60597 78300.00000 0 8982768.184 18303789.782 -15302399.396 10 0 60597 79200.00000 0 7495808.768 16922123.020 -17530914.167 10 0 60597 80100.00000 0 5710690.516 15498610.999 -19418311.943 10 0 60597 81000.00000 0 3652908.518 14092404.688 -20927898.035 10 0 60597 81900.00000 0 1359580.478 12758280.746 -22030345.456 10 0 60597 82800.00000 0 -1121846.427 11544364.225 -22704263.602 10 0 60597 83700.00000 0 -3735324.562 10490151.987 -22936610.753 10 0 60597 84600.00000 0 -6418299.071 9624919.503 -22722942.843 10 0 60597 85500.00000 0 -9104078.453 8966577.251 -22067494.153 10 0 60598 0.00000 0 -11724383.922 8521023.847 -20983088.984 10 0 60598 900.00000 0 -14211973.223 8282021.772 -19490885.772 10 0 60598 1800.00000 0 -16503226.649 8231600.264 -17619960.505 10 0 60598 2700.00000 0 -18540592.834 8340966.418 -15406735.871 10 0 60598 3600.00000 0 -20274789.595 8571885.619 -12894268.703 10 0 60598 4500.00000 0 -21666670.277 8878471.799 -10131409.281 10 0 60598 5400.00000 0 -22688678.403 9209311.147 -7171849.013 10 0 60598 6300.00000 0 -23325830.933 9509828.908 -4073075.144 10 0 60598 7200.00000 0 -23576190.115 9724798.680 -895253.035 10 0 60598 8100.00000 0 -23450805.385 9800887.797 2299942.092 10 0 60598 9000.00000 0 -22973128.935 9689130.920 5450521.096 10 0 60598 9900.00000 0 -22177930.528 9347227.112 8495381.178 10 0 60598 10800.00000 0 -21109758.061 8741563.263 11375487.183 10 0 60598 11700.00000 0 -19821009.138 7848878.264 14035011.232 10 0 60598 12600.00000 0 -18369694.983 6657497.553 16422408.875 10 0 60598 13500.00000 0 -16816990.590 5168085.620 18491411.488 10 0 60598 14400.00000 0 -15224673.519 3393884.157 20201916.358 10 0 60598 15300.00000 0 -13652558.166 1360424.936 21520757.980 10 0 60598 16200.00000 0 -12156032.146 -895271.806 22422346.380 10 0 60598 17100.00000 0 -10783796.986 -3325981.534 22889160.824 10 0 60598 18000.00000 0 -9575906.731 -5875990.210 22912089.759 10 0 60598 18900.00000 0 -8562185.615 -8483170.162 22490610.649 10 0 60598 19800.00000 0 -7761090.289 -11081332.454 21632806.082 10 0 60598 20700.00000 0 -7179063.735 -13602759.612 20355215.360 10 0 60598 21600.00000 0 -6810407.632 -15980814.864 18682523.727 10 0 60598 22500.00000 0 -6637678.513 -18152520.546 16647094.231 10 0 60598 23400.00000 0 -6632591.168 -20060999.051 14288350.218 10 0 60598 24300.00000 0 -6757391.518 -21657675.043 11652019.339 10 0 60598 25200.00000 0 -6966641.314 -22904147.118 8789252.761 10 0 60598 26100.00000 0 -7209339.414 -23773650.301 5755635.965 10 0 60598 27000.00000 0 -7431289.963 -24252047.987 2610109.982 10 0 60598 27900.00000 0 -7577616.829 -24338311.041 -586176.034 10 0 60598 28800.00000 0 -7595317.123 -24044463.499 -3771058.251 10 0 60598 29700.00000 0 -7435744.714 -23394997.049 -6882573.710 10 0 60598 30600.00000 0 -7056917.236 -22425778.769 -9860173.557 10 0 60598 31500.00000 0 -6425547.563 -21182498.353 -12645909.284 10 0 60598 32400.00000 0 -5518712.247 -19718720.561 -15185567.997 10 0 60598 33300.00000 0 -4325084.890 -18093625.447 -17429733.792 10 0 60598 34200.00000 0 -2845680.981 -16369532.088 -19334753.943 10 0 60598 35100.00000 0 -1094081.528 -14609310.575 -20863590.759 10 0 60598 36000.00000 0 903875.113 -12873791.430 -21986542.470 10 0 60598 36900.00000 0 3110921.172 -11219281.511 -22681819.244 10 0 60598 37800.00000 0 5479673.315 -9695290.554 -22935963.516 10 0 60598 38700.00000 0 7954378.097 -8342563.287 -22744106.897 10 0 60598 39600.00000 0 10473016.615 -7191498.929 -22110059.181 10 0 60598 40500.00000 0 12969681.004 -6261023.332 -21046228.201 10 0 60598 41400.00000 0 15377124.110 -5557959.770 -19573372.516 10 0 60598 42300.00000 0 17629376.415 -5076923.419 -17720192.041 10 0 60598 43200.00000 0 19664321.581 -4800742.431 -15522764.843 10 0 60598 44100.00000 0 21426123.688 -4701386.426 -13023841.210 10 0 60598 45000.00000 0 22867405.433 -4741361.900 -10272008.875 10 0 60598 45900.00000 0 23951087.000 -4875514.484 -7320745.748 10 0 60598 46800.00000 0 24651809.500 -5053160.912 -4227378.733 10 0 60598 47700.00000 0 24956884.281 -5220459.814 -1051969.060 10 0 60598 48600.00000 0 24866729.271 -5322920.456 2143854.009 10 0 60598 49500.00000 0 24394775.042 -5307942.917 5298088.311 10 0 60598 50400.00000 0 23566845.390 -5127281.997 8349559.372 10 0 60598 51300.00000 0 22420039.235 -4739330.527 11239103.186 10 0 60598 52200.00000 0 21001161.319 -4111125.488 13910708.428 10 0 60598 53100.00000 0 19364767.840 -3219992.116 16312596.228 10 0 60598 54000.00000 0 17570909.014 -2054756.393 18398217.153 10 0 60598 54900.00000 0 15682662.800 -616474.404 20127146.742 10 0 60598 55800.00000 0 13763562.469 1081352.817 21465862.986 10 0 60598 56700.00000 0 11875024.770 3013089.041 22388391.495 10 0 60598 57600.00000 0 10073885.129 5141785.594 22876806.522 10 0 60598 58500.00000 0 8410141.790 7420484.294 22921578.625 10 0 60598 59400.00000 0 6925001.963 9793948.019 22521762.455 10 0 60598 60300.00000 0 5649310.611 12200748.619 21685020.932 10 0 60598 61200.00000 0 4602426.698 14575626.945 20427484.893 10 0 60598 62100.00000 0 3791593.284 16852028.350 18773450.187 10 0 60598 63000.00000 0 3211827.417 18964709.341 16754917.101 10 0 60598 63900.00000 0 2846334.282 20852307.631 14410979.951 10 0 60598 64800.00000 0 2667428.110 22459768.908 11787077.571 10 0 60598 65700.00000 0 2637921.073 23740528.995 8934118.240 10 0 60598 66600.00000 0 2712921.576 24658359.951 5907495.333 10 0 60598 67500.00000 0 2841965.827 25188802.217 2766012.431 10 0 60598 68400.00000 0 2971392.125 25320121.989 -429261.337 10 0 60598 69300.00000 0 3046856.785 25053753.066 -3616183.045 10 0 60598 70200.00000 0 3015884.136 24404203.780 -6732751.046 10 0 60598 71100.00000 0 2830341.423 23398432.663 -9718318.911 10 0 60598 72000.00000 0 2448732.528 22074719.038 -12514783.541 10 0 60598 72900.00000 0 1838211.900 20481075.952 -15067723.466 10 0 60598 73800.00000 0 976232.064 18673272.555 -17327464.320 10 0 60598 74700.00000 0 -148246.301 16712549.442 -19250050.124 10 0 60598 75600.00000 0 -1534034.054 14663123.433 -20798101.118 10 0 60598 76500.00000 0 -3167514.557 12589586.817 -21941541.374 10 0 60598 77400.00000 0 -5022975.264 10554310.408 -22658182.154 10 0 60598 78300.00000 0 -7063456.834 8614959.124 -22934150.033 10 0 60598 79200.00000 0 -9242084.903 6822223.790 -22764151.934 10 0 60598 80100.00000 0 -11503829.283 5217863.416 -22151572.398 10 0 60598 81000.00000 0 -13787617.534 3833138.893 -21108401.729 10 0 60598 81900.00000 0 -16028715.013 2687702.360 -19654996.797 10 0 60598 82800.00000 0 -18161272.327 1788987.301 -17819679.516 10 0 60598 83700.00000 0 -20120934.197 1132123.253 -15638181.002 10 0 60598 84600.00000 0 -21847401.098 700377.019 -13152942.416 10 0 60598 85500.00000 0 -23286837.027 466100.161 -10412286.207 10 0 60599 0.00000 0 -24394023.082 392141.310 -7469474.273 10 0 60599 900.00000 0 -25134167.776 433662.381 -4381669.877 10 0 60599 1800.00000 0 -25484297.473 540280.890 -1208827.660 10 0 60599 2700.00000 0 -25434171.279 658446.860 1987471.704 10 0 60599 3600.00000 0 -24986681.174 733953.258 5145215.560 10 0 60599 4500.00000 0 -24157721.919 714473.300 8203160.175 10 0 60599 5400.00000 0 -22975536.685 552017.081 11102015.000 10 0 60599 6300.00000 0 -21479566.284 205203.569 13785587.414 10 0 60599 7200.00000 0 -19718850.503 -358748.092 16201866.093 10 0 60599 8100.00000 0 -17750048.473 -1162392.085 18304022.515 10 0 60599 9000.00000 0 -15635160.609 -2216863.061 20051311.897 10 0 60599 9900.00000 0 -13439046.781 -3521167.559 21409856.826 10 0 60599 10800.00000 0 -11226843.486 -5061990.256 22353299.216 10 0 60599 11700.00000 0 -9061386.741 -6814024.263 22863308.666 10 0 60599 12600.00000 0 -7000746.989 -8740813.013 22929937.828 10 0 60599 13500.00000 0 -5095977.529 -10796070.176 22551818.190 10 0 60599 14400.00000 0 -3389169.156 -12925424.247 21736192.334 10 0 60599 15300.00000 0 -1911891.111 -15068516.763 20498781.665 10 0 60599 16200.00000 0 -684082.542 -17161368.282 18863491.394 10 0 60599 17100.00000 0 286559.852 -19138914.829 16861957.538 10 0 60599 18000.00000 0 1004672.795 -20937609.965 14532943.608 10 0 60599 18900.00000 0 1486792.536 -22497984.405 11921597.593 10 0 60599 19800.00000 0 1760414.484 -23767056.326 9078582.625 10 0 60599 20700.00000 0 1862586.177 -24700491.243 6059097.533 10 0 60599 21600.00000 0 1838093.188 -25264420.336 2921805.828 10 0 60599 22500.00000 0 1737314.993 -25436840.080 -272306.093 10 0 60599 23400.00000 0 1613842.137 -25208533.428 -3461119.008 10 0 60599 24300.00000 0 1521956.430 -24583472.864 -6582595.443 10 0 60599 25200.00000 0 1514081.983 -23578687.756 -9575994.244 10 0 60599 26100.00000 0 1638316.269 -22223600.940 -12383060.560 10 0 60599 27000.00000 0 1936147.132 -20558862.180 -14949167.095 10 0 60599 27900.00000 0 2440453.679 -18634727.496 -17224383.612 10 0 60599 28800.00000 0 3173876.955 -16509052.535 -19164453.217 10 0 60599 29700.00000 0 4147630.382 -14244984.467 -20731656.074 10 0 60599 30600.00000 0 5360801.239 -11908449.436 -21895543.656 10 0 60599 31500.00000 0 6800173.474 -9565540.946 -22633529.382 10 0 60599 32400.00000 0 8440580.100 -7279918.439 -22931324.517 10 0 60599 33300.00000 0 10245770.994 -5110324.489 -22783211.304 10 0 60599 34200.00000 0 12169760.197 -3108323.831 -22192148.545 10 0 60599 35100.00000 0 14158596.706 -1316357.724 -21169708.049 10 0 60599 36000.00000 0 16152484.956 233806.254 -19735843.609 10 0 60599 36900.00000 0 18088166.535 1522165.614 -17918497.326 10 0 60599 37800.00000 0 19901463.732 2541071.589 -15753051.174 10 0 60599 38700.00000 0 21529878.747 3295292.119 -13281634.614 10 0 60599 39600.00000 0 22915139.962 3801548.361 -10552301.896 10 0 60599 40500.00000 0 24005588.934 4087545.997 -7618095.141 10 0 60599 41400.00000 0 24758308.396 4190543.760 -4536011.561 10 0 60599 42300.00000 0 25140902.383 4155520.962 -1365895.107 10 0 60599 43200.00000 0 25132854.258 4033022.573 1830725.750 10 0 60599 44100.00000 0 24726406.066 3876773.793 4991831.353 10 0 60599 45000.00000 0 23926922.757 3741165.608 8056111.987 10 0 60599 45900.00000 0 22752726.396 3678718.002 10964153.482 10 0 60599 46800.00000 0 21234407.565 3737628.241 13659584.458 10 0 60599 47700.00000 0 19413642.926 3959507.853 16090163.237 10 0 60599 48600.00000 0 17341568.343 4377403.802 18208783.873 10 0 60599 49500.00000 0 15076775.201 5014187.369 19974382.497 10 0 60599 50400.00000 0 12683013.000 5881378.742 21352727.126 10 0 60599 51300.00000 0 10226693.172 6978457.200 22317076.436 10 0 60599 52200.00000 0 7774297.025 8292686.584 22848695.446 10 0 60599 53100.00000 0 5389794.544 9799464.386 22937218.618 10 0 60599 54000.00000 0 3132180.131 11463181.198 22580853.596 10 0 60599 54900.00000 0 1053226.569 13238556.087 21786421.570 10 0 60599 55800.00000 0 -804450.493 15072393.724 20569233.057 10 0 60599 56700.00000 0 -2408937.895 16905691.421 18952800.813 10 0 60599 57600.00000 0 -3740116.564 18676009.506 16968394.422 10 0 60599 58500.00000 0 -4790254.340 20320007.040 14654444.145 10 0 60599 59400.00000 0 -5564075.649 21776037.502 12055804.439 10 0 60599 60300.00000 0 -6078305.485 22986696.125 9222890.445 10 0 60599 61200.00000 0 -6360707.104 23901211.921 6210703.464 10 0 60599 62100.00000 0 -6448654.252 24477583.414 3077763.906 10 0 60599 63000.00000 0 -6387298.625 24684367.559 -115027.615 10 0 60599 63900.00000 0 -6227410.516 24502045.436 -3305578.601 10 0 60599 64800.00000 0 -6022984.851 23923906.207 -6431818.640 10 0 60599 65700.00000 0 -5828714.915 22956411.076 -9432914.591 10 0 60599 66600.00000 0 -5697441.891 21619021.059 -12250462.340 10 0 60599 67500.00000 0 -5677689.417 19943495.151 -14829630.955 10 0 60599 68400.00000 0 -5811388.815 17972687.878 -17120236.191 10 0 60599 69300.00000 0 -6131892.363 15758896.604 -19077721.769 10 0 60599 70200.00000 0 -6662359.722 13361827.891 -20664028.963 10 0 60599 71100.00000 0 -7414586.512 10846268.121 -21848337.511 10 0 60599 72000.00000 0 -8388325.237 8279555.978 -22607663.516 10 0 60599 72900.00000 0 -9571127.751 5728962.322 -22927303.110 10 0 60599 73800.00000 0 -10938716.370 3259086.625 -22801113.673 10 0 60599 74700.00000 0 -12455868.368 929378.157 -22231627.676 10 0 60599 75600.00000 0 -14077777.025 -1208115.488 -21229997.416 10 0 60599 76500.00000 0 -15751832.320 -3110679.655 -19815772.153 10 0 60599 77400.00000 0 -17419746.759 -4746464.415 -18016512.313 10 0 60599 78300.00000 0 -19019937.349 -6095554.455 -15867248.480 10 0 60599 79200.00000 0 -20490063.973 -7150534.118 -13409795.889 10 0 60599 80100.00000 0 -21769617.810 -7916525.715 -10691937.847 10 0 60599 81000.00000 0 -22802451.333 -8410701.414 -7766494.100 10 0 60599 81900.00000 0 -23539143.842 -8661290.980 -4690292.368 10 0 60599 82800.00000 0 -23939103.374 -8706128.794 -1523063.255 10 0 60599 83700.00000 0 -23972316.908 -8590802.794 1673719.835 10 0 60599 84600.00000 0 -23620675.574 -8366484.617 4838033.047 10 0 60599 85500.00000 0 -22878819.428 -8087533.429 7908503.380 10 0 60600 0.00000 0 -21754466.615 -7808975.248 10825595.378 10 0 60600 900.00000 0 -20268212.545 -7583964.402 13532761.841 10 0 60600 1800.00000 0 -18452809.022 -7461334.774 15977532.658 10 0 60600 2700.00000 0 -16351951.268 -7483343.583 18112526.375 10 0 60600 3600.00000 0 -14018624.512 -7683703.113 19896361.619 10 0 60600 4500.00000 0 -11513077.899 -8085983.059 21294453.040 10 0 60600 5400.00000 0 -8900509.348 -8702450.820 22279676.881 10 0 60600 6300.00000 0 -6248556.561 -9533398.796 22832893.988 10 0 60600 7200.00000 0 -3624697.277 -10566987.535 22943320.656 10 0 60600 8100.00000 0 -1093665.448 -11779612.242 22608740.360 10 0 60600 9000.00000 0 1285010.681 -13136778.482 21835552.245 10 0 60600 9900.00000 0 3459247.473 -14594451.797 20638655.021 10 0 60600 10800.00000 0 5386329.834 -16100826.164 19041167.783 10 0 60600 11700.00000 0 7034440.952 -17598438.676 17073992.222 10 0 60600 12600.00000 0 8383734.751 -19026542.994 14775223.606 10 0 60600 13500.00000 0 9426906.765 -20323642.981 12189420.844 10 0 60600 14400.00000 0 10169239.940 -21430080.677 9366748.790 10 0 60600 15300.00000 0 10628123.659 -22290569.870 6362008.652 10 0 60600 16200.00000 0 10832066.638 -22856568.491 3233574.968 10 0 60600 17100.00000 0 10819245.544 -23088389.079 42259.634 10 0 60600 18000.00000 0 10635651.115 -22956957.282 -3149874.588 10 0 60600 18900.00000 0 10332910.894 -22445143.249 -6280727.379 10 0 60600 19800.00000 0 9965881.490 -21548608.437 -9289376.600 10 0 60600 20700.00000 0 9590113.335 -20276131.029 -12117271.747 10 0 60600 21600.00000 0 9259296.333 -18649395.260 -14709380.980 10 0 60600 22500.00000 0 9022795.656 -16702252.662 -17015268.566 10 0 60600 23400.00000 0 8923383.010 -14479485.753 -18990081.080 10 0 60600 24300.00000 0 8995260.216 -12035125.678 -20595422.808 10 0 60600 25200.00000 0 9262459.380 -9430394.077 -21800103.247 10 0 60600 26100.00000 0 9737687.716 -6731355.167 -22580742.233 10 0 60600 27000.00000 0 10421666.145 -4006375.956 -22922221.335 10 0 60600 27900.00000 0 11302989.740 -1323500.307 -22817973.155 10 0 60600 28800.00000 0 12358516.032 1252154.080 -22270103.456 10 0 60600 29700.00000 0 13554264.852 3660867.940 -21289344.211 10 0 60600 30600.00000 0 14846791.910 5850559.895 -19894838.927 10 0 60600 31500.00000 0 16184978.330 7778700.849 -18113764.744 10 0 60600 32400.00000 0 17512160.929 9413824.883 -15980798.900 10 0 60600 33300.00000 0 18768513.713 10736575.174 -13537440.080 10 0 60600 34200.00000 0 19893580.456 11740242.896 -10831197.997 10 0 60600 35100.00000 0 20828851.908 12430778.371 -7914667.070 10 0 60600 36000.00000 0 21520279.273 12826275.828 -4844502.335 10 0 60600 36900.00000 0 21920618.267 12955955.124 -1680317.688 10 0 60600 37800.00000 0 21991505.204 12858684.865 1516471.953 10 0 60600 38700.00000 0 21705177.855 12581110.483 4683841.896 10 0 60600 39600.00000 0 21045768.751 12175467.271 7760359.064 10 0 60600 40500.00000 0 20010116.613 11697171.407 10686370.167 10 0 60600 41400.00000 0 18608061.734 11202291.049 13405153.771 10 0 60600 42300.00000 0 16862212.741 10745004.376 15864014.152 10 0 60600 43200.00000 0 14807194.123 10375151.711 18015296.272 10 0 60600 44100.00000 0 12488405.389 10135984.639 19817302.815 10 0 60600 45000.00000 0 9960342.870 10062206.655 21235096.273 10 0 60600 45900.00000 0 7284553.079 10178387.533 22241171.312 10 0 60600 46800.00000 0 4527301.553 10497817.970 22815985.113 10 0 60600 47700.00000 0 1757052.776 11021852.806 22948335.916 10 0 60600 48600.00000 0 -958135.633 11739770.778 22635582.756 10 0 60600 49500.00000 0 -3553197.708 12629157.486 21883702.029 10 0 60600 50400.00000 0 -5968516.894 13656796.477 20707179.479 10 0 60600 51300.00000 0 -8152155.884 14780032.239 19128738.953 10 0 60600 52200.00000 0 -10061766.784 15948549.190 17178912.236 10 0 60600 53100.00000 0 -11666102.781 17106493.096 14895457.243 10 0 60600 54000.00000 0 -12946068.794 18194846.750 12322634.690 10 0 60600 54900.00000 0 -13895267.532 19153960.625 9510356.283 10 0 60600 55800.00000 0 -14520018.345 19926132.217 6513220.185 10 0 60600 56700.00000 0 -14838848.304 20458125.194 3389452.041 10 0 60600 57600.00000 0 -14881477.146 20703521.470 199772.010 10 0 60600 58500.00000 0 -14687339.331 20624806.046 -2993789.838 10 0 60600 59400.00000 0 -14303706.056 20195095.281 -6129106.139 10 0 60600 60300.00000 0 -13783487.413 19399434.334 -9145168.472 10 0 60600 61200.00000 0 -13182808.549 18235607.855 -11983282.469 10 0 60600 62100.00000 0 -12558463.297 16714428.304 -14588217.665 10 0 60600 63000.00000 0 -11965354.033 14859488.712 -16909288.838 10 0 60600 63900.00000 0 -11454026.978 12706389.416 -18901347.107 10 0 60600 64800.00000 0 -11068407.937 10301470.537 -20525661.146 10 0 60600 65700.00000 0 -10843834.748 7700102.821 -21750671.258 10 0 60600 66600.00000 0 -10805469.876 4964608.028 -22552601.748 10 0 60600 67500.00000 0 -10967160.276 2161895.445 -22915920.030 10 0 60600 68400.00000 0 -11330792.568 -639087.228 -22833634.008 10 0 60600 69300.00000 0 -11886170.495 -3369982.728 -22307422.455 10 0 60600 70200.00000 0 -12611419.561 -5965623.909 -21347596.360 10 0 60600 71100.00000 0 -13473901.506 -8366496.765 -19972892.433 10 0 60600 72000.00000 0 -14431599.797 -10520965.130 -18210103.102 10 0 60600 72900.00000 0 -15434917.536 -12387165.547 -16093550.468 10 0 60600 73800.00000 0 -16428811.867 -13934494.661 -13664414.574 10 0 60600 74700.00000 0 -17355174.772 -15144628.502 -10969929.204 10 0 60600 75600.00000 0 -18155359.856 -16012032.723 -8062460.938 10 0 60600 76500.00000 0 -18772748.546 -16543944.098 -4998489.491 10 0 60600 77400.00000 0 -19155247.471 -16759825.764 -1837509.343 10 0 60600 78300.00000 0 -19257611.744 -16690320.662 1359125.818 10 0 60600 79200.00000 0 -19043496.208 -16375748.657 4529393.241 10 0 60600 80100.00000 0 -18487148.199 -15864211.790 7611802.538 10 0 60600 81000.00000 0 -17574670.488 -15209388.405 10546585.076 10 0 60600 81900.00000 0 -16304801.120 -14468109.713 13276848.365 10 0 60600 82800.00000 0 -14689177.098 -13697821.180 15749673.328 10 0 60600 83700.00000 0 -12752070.396 -12954035.680 17917133.647 10 0 60600 84600.00000 0 -10529606.636 -12287885.375 19737218.100 10 0 60600 85500.00000 0 -8068498.193 -11743874.932 21174638.724 99